Location: Presov
(49.0000°N, 21.2500°E)
Time: 21:10:53
(UTC+02:00)

ISS - Pass Details

Date: 20 May 2025
Orbit: 415 x 416 km, 51.6° (Epoch: 16 June)

Event Time Altitude Azimuth Distance (km) Brightness Sun altitude
Rises 23:04:30 0° 288° (WNW) 2,361 0.6 -18.2°
Reaches altitude 10° 23:06:46 10° 277° (W) 1,493 -0.6 -18.3°
Enters shadow 23:09:08 27° 236° (SW) 835 -2.4 -18.4°
